CZ-2D DEB, 44611

Orbit data source: Space-Track

CZ-2D DEB, 44611 is space debris in SSO originally from a launch on Mon, 09 Oct 2017 UTC launched from the Jiuquan Satellite Launch Center, China (JSC). Debris objects in space refer to the collection of defunct objects orbiting the Earth. Examples of debris include non-operational satellites, rocket bodies, and fragments generated from explosions, collisions, or faulty payload assembly.

Loading next visibility...
Identifier
44611, 2017-060D
Orbit
SSO
Country
Flag of CNCN / PRC
Related business
Manufacturer
Unknown
Mission
Spacecraft
Bus & Motor
Unknown
Mass
Unknown
Launch date (UTC)
2017-10-09 (9 years ago)
Launch vehicle
Unknown
Launch site
Jiuquan Satellite Launch Center, China (JSC)
Object type
Payload
Rocket body
Debris
Shape & HBR
Unknown shape, 0.1 m
Radar Cross Section
Small (<0.1 m²)

Expand to show TLE details & history
Last TLE update: 12 hours ago

TLE from 12 hours ago
0 CZ-2D DEB
1 44611U 17060D   26127.21688146  .00003531  00000-0  32326-3 0  9995
2 44611  98.2244 282.0833 0027040 250.3642 109.4658 14.95394308461020
Epoch: 2026-05-07T05:12Z
TLE epoch observation values (Epoch: 2026-05-07T05:12:18.558Z)
Latitude
-0.00006°
Longitude
-21.06021°
Altitude
590.499 km
Speed
7.561 km/s
True Right ascension
18h 48m 19s
True Declination
0° 00' 00"
Sunlit
Object was in full shadow at epoch
Visualization orbit readout
Latitude
Unknown
Longitude
Unknown
Altitude
Unknown
Speed
Unknown
Apparent Right ascension
Unknown
Apparent Declination
Unknown
Sunlit
N/A
Visualization observer readout
Local Sidereal Time
01:12:04
Azimuth
Unknown
Elevation
Unknown
Doppler factor
Unknown
Orbital elements
Apogee altitude
596.994 km
Perigee altitude
559.374 km
Semi-major axis
6,956.321 km
Eccentricity
0.0027
Inclination
98.2244°
RAAN
282.0833°
Arg. of periapsis
250.3642°
True anomaly
109.75761°
Mean anomaly
109.4658°
Eccentric anomaly
109.61174°
Mean motion
3.74088 °/min
Orbital period
96.23 mins
BSTAR
0.00032326
Loading maneuver chart data...
Computing Atmospheric mass density...
Loading historical data...
Loading historical data...
Loading historical data...
Loading historical data...
Loading historical data...
Loading historical data...
Loading historical data...
Other satellites on launch #60 in the year 2017 (2017-10-09 UTC)

Documentation

Showing up to 5 results
|